Jefferson, GA

10:04 PM EDT on March 22, 2017 (GMT -0400)
Jefferson

Weather History for K19A - November, 2013

Change the Weather History Date:

Thursday, November 7, 2013

  Actual Average (KWDR) Record (KWDR)
Temperature  
Mean Temperature 58 °F -  
Max Temperature 69 °F 65 °F 79 °F (1964)
Min Temperature 46 °F 40 °F 24 °F (1962)
Degree Days  
Heating Degree Days 8    
Growing Degree Days 8 (Base 50)    
Moisture  
Dew Point 43 °F    
Average Humidity 63    
Maximum Humidity 100    
Minimum Humidity 16    
Precipitation  
Precipitation 0.00 in - - ()
Sea Level Pressure  
Sea Level Pressure 30.09 in    
Wind  
Wind Speed 4 mph (NW)    
Max Wind Speed 17 mph    
Max Gust Speed 24 mph    
Visibility 9 miles    
Events Rain    
Averages and records for this station are not official NWS values.
T = Trace of Precipitation, MM = Missing Value Source: NWS Daily Summary

Daily Weather History Graph

Daily Weather History Graph

Search for Another Location

Airport or City:

Trip Planner

Search our weather history database for the weather conditions in past years. The results will help you decide how hot, cold, wet, or windy it might be!

Date:

Astronomy

Nov. 07, 2013 Rise Set
Actual Time 6:59 AM EST 5:35 PM EST
Civil Twilight 6:33 AM EST 6:01 PM EST
Nautical Twilight 6:03 AM EST 6:31 PM EST
Astronomical Twilight 5:34 AM EST 7:01 PM EST
Moon 11:05 AM EST (11/7) 9:47 PM EST (11/7)
Length of Visible Light 11h 28m
Length of Day
10h 35m
Waxing Crescent, 22% of the Moon is Illuminated
Nov 7
Waxing Crescent
Nov 10
First Quarter
Nov 17
Full
Nov 25
Last Quarter
Dec 2
New

Hourly Weather History & Observations

Time (EST) Temp. Windchill Dew Point Humidity Pressure Visibility Wind Dir Wind Speed Gust Speed Precip Events Conditions
12:15 AM 55.4 °F - 53.6 °F 94% 30.14 in 10.0 mi Calm Calm - N/A   Mostly Cloudy
12:35 AM 57.2 °F - 53.6 °F 88% 30.13 in 10.0 mi Calm Calm - N/A   Overcast
12:55 AM 57.2 °F - 53.6 °F 88% 30.12 in 10.0 mi Calm Calm - N/A   Overcast
1:15 AM 57.2 °F - 53.6 °F 88% 30.11 in 10.0 mi Calm Calm - N/A   Overcast
1:35 AM 59.0 °F - 53.6 °F 82% 30.11 in 10.0 mi Calm Calm - N/A   Overcast
1:55 AM 59.0 °F - 53.6 °F 82% 30.10 in 10.0 mi Calm Calm - N/A   Overcast
2:15 AM 57.2 °F - 53.6 °F 88% 30.08 in 10.0 mi Calm Calm - N/A   Scattered Clouds
2:35 AM 55.4 °F - 53.6 °F 94% 30.07 in 10.0 mi Calm Calm - N/A   Clear
2:55 AM 55.4 °F - 53.6 °F 94% 30.07 in 10.0 mi Calm Calm - N/A   Clear
3:15 AM 55.4 °F - 53.6 °F 94% 30.06 in 10.0 mi Calm Calm - N/A   Clear
3:35 AM 55.4 °F - 53.6 °F 94% 30.05 in 10.0 mi Calm Calm - N/A   Clear
3:55 AM 55.4 °F - 53.6 °F 94% 30.06 in 10.0 mi Calm Calm - N/A   Scattered Clouds
4:15 AM 55.4 °F - 53.6 °F 94% 30.06 in 10.0 mi Calm Calm - N/A   Overcast
4:35 AM 55.4 °F - 53.6 °F 94% 30.05 in 10.0 mi Calm Calm - N/A   Mostly Cloudy
4:55 AM 55.4 °F - 53.6 °F 94% 30.05 in 10.0 mi Calm Calm - N/A   Overcast
5:15 AM 55.4 °F - 53.6 °F 94% 30.05 in 10.0 mi Calm Calm - N/A   Overcast
5:35 AM 55.4 °F - 53.6 °F 94% 30.05 in 10.0 mi Calm Calm - N/A   Overcast
5:55 AM 57.2 °F - 55.4 °F 94% 30.05 in 10.0 mi Calm Calm - N/A   Overcast
6:15 AM 57.2 °F - 55.4 °F 94% 30.04 in 10.0 mi Calm Calm - N/A   Overcast
6:35 AM 59.0 °F - 55.4 °F 88% 30.04 in 7.0 mi Calm Calm - N/A   Overcast
6:55 AM 57.2 °F - 55.4 °F 94% 30.06 in 2.5 mi NW 3.5 mph - N/A   Heavy Drizzle
7:15 AM 57.2 °F - 55.4 °F 94% 30.06 in 2.5 mi Calm Calm - N/A Rain Rain
7:35 AM 57.2 °F - 55.4 °F 94% 30.06 in 2.5 mi Calm Calm - N/A   Overcast
7:55 AM 57.2 °F - 57.2 °F 100% 30.06 in 2.5 mi Calm Calm - N/A Rain Light Rain
8:15 AM 59.0 °F - 59.0 °F 100% 30.06 in 3.0 mi Calm Calm - N/A   Overcast
8:35 AM 59.0 °F - 59.0 °F 100% 30.06 in 4.0 mi WSW 3.5 mph - N/A   Overcast
8:55 AM 60.8 °F - 59.0 °F 94% 30.05 in 5.0 mi West 3.5 mph - N/A   Scattered Clouds
9:15 AM 60.8 °F - 60.8 °F 100% 30.06 in 10.0 mi West 4.6 mph - N/A   Mostly Cloudy
9:35 AM 62.6 °F - 60.8 °F 94% 30.06 in 10.0 mi WNW 6.9 mph - N/A   Overcast
9:55 AM 62.6 °F - 60.8 °F 94% 30.06 in 10.0 mi WNW 9.2 mph - N/A   Overcast
10:15 AM 62.6 °F - 60.8 °F 94% 30.06 in 7.0 mi WNW 9.2 mph - N/A   Overcast
10:35 AM 64.4 °F - 59.0 °F 83% 30.07 in 10.0 mi WNW 9.2 mph - N/A   Overcast
10:55 AM 64.4 °F - 55.4 °F 73% 30.06 in 10.0 mi WNW 6.9 mph 18.4 mph N/A   Mostly Cloudy
11:15 AM 68.0 °F - 53.6 °F 60% 30.06 in 10.0 mi NW 9.2 mph - N/A   Scattered Clouds
11:35 AM 69.8 °F - 50.0 °F 49% 30.06 in 10.0 mi NW 15.0 mph 20.7 mph N/A   Clear
11:55 AM 69.8 °F - 44.6 °F 40% 30.06 in 10.0 mi WNW 15.0 mph 24.2 mph N/A   Clear
12:15 PM 69.8 °F - 44.6 °F 40% 30.05 in 10.0 mi WNW 11.5 mph - N/A   Scattered Clouds
12:35 PM 69.8 °F - 42.8 °F 38% 30.05 in 10.0 mi NW 13.8 mph 19.6 mph N/A   Scattered Clouds
12:55 PM 69.8 °F - 41.0 °F 35% 30.05 in 10.0 mi NW 15.0 mph 23.0 mph N/A   Clear
1:15 PM 69.8 °F - 39.2 °F 33% 30.05 in 10.0 mi NNW 11.5 mph 18.4 mph N/A   Clear
1:35 PM 69.8 °F - 32.0 °F 25% 30.04 in 10.0 mi NW 12.7 mph 23.0 mph N/A   Clear
1:55 PM 69.8 °F - 33.8 °F 27% 30.04 in 10.0 mi NW 11.5 mph 19.6 mph N/A   Clear
2:15 PM 68.0 °F - 28.4 °F 23% 30.04 in 10.0 mi NW 13.8 mph 20.7 mph N/A   Clear
2:35 PM 68.0 °F - 19.4 °F 16% 30.04 in 10.0 mi WNW 11.5 mph 19.6 mph N/A   Clear
2:55 PM 68.0 °F - 19.4 °F 16% 30.04 in 10.0 mi NW 12.7 mph - N/A   Clear
3:15 PM 68.0 °F - 21.2 °F 17% 30.04 in 10.0 mi WNW 15.0 mph 19.6 mph N/A   Clear
3:35 PM 66.2 °F - 21.2 °F 18% 30.05 in 10.0 mi NW 11.5 mph - N/A   Clear
3:55 PM 66.2 °F - 21.2 °F 18% 30.05 in 10.0 mi WNW 16.1 mph - N/A   Clear
4:15 PM 64.4 °F - 23.0 °F 21% 30.06 in 10.0 mi NW 16.1 mph 19.6 mph N/A   Clear
4:35 PM 62.6 °F - 28.4 °F 27% 30.06 in 10.0 mi NW 17.3 mph 20.7 mph N/A   Clear
4:55 PM 60.8 °F - 30.2 °F 31% 30.07 in 10.0 mi NW 15.0 mph 20.7 mph N/A   Clear
5:55 PM 55.4 °F - 30.2 °F 38% 30.09 in 10.0 mi NW 15.0 mph 20.7 mph N/A   Clear
6:15 PM 55.4 °F - 28.4 °F 36% 30.10 in 10.0 mi NW 13.8 mph - N/A   Clear
6:35 PM 53.6 °F - 28.4 °F 38% 30.12 in 10.0 mi NW 9.2 mph - N/A   Clear
6:55 PM 53.6 °F - 28.4 °F 38% 30.12 in 10.0 mi NW 11.5 mph 16.1 mph N/A   Clear
7:15 PM 51.8 °F - 28.4 °F 41% 30.14 in 10.0 mi NW 5.8 mph - N/A   Clear
7:35 PM 51.8 °F - 30.2 °F 44% 30.14 in 10.0 mi NW 8.1 mph - N/A   Clear
7:55 PM 51.8 °F - 28.4 °F 41% 30.14 in 10.0 mi NNW 6.9 mph - N/A   Clear
8:15 PM 51.8 °F - 28.4 °F 41% 30.14 in 10.0 mi NW 9.2 mph - N/A   Clear
8:35 PM 51.8 °F - 28.4 °F 41% 30.14 in 10.0 mi NW 9.2 mph - N/A   Clear
8:55 PM 50.0 °F - 28.4 °F 43% 30.15 in 10.0 mi NW 10.4 mph - N/A   Clear
9:15 PM 50.0 °F - 28.4 °F 43% 30.16 in 10.0 mi NW 8.1 mph - N/A   Clear
9:35 PM 50.0 °F - 30.2 °F 47% 30.16 in 10.0 mi NW 9.2 mph - N/A   Clear
9:55 PM 50.0 °F - 30.2 °F 47% 30.16 in 10.0 mi NW 8.1 mph - N/A   Clear
10:15 PM 48.2 °F - 30.2 °F 50% 30.17 in 10.0 mi NW 9.2 mph - N/A   Clear
10:35 PM 46.4 °F 42.4 °F 30.2 °F 53% 30.17 in 10.0 mi NW 8.1 mph - N/A   Clear
10:55 PM 46.4 °F 41.5 °F 30.2 °F 53% 30.17 in 10.0 mi NW 10.4 mph - N/A   Clear
11:15 PM 46.4 °F 41.1 °F 30.2 °F 53% 30.18 in 10.0 mi NW 11.5 mph - N/A   Clear
11:35 PM 48.2 °F - 30.2 °F 50% 30.18 in 10.0 mi NW 12.7 mph - N/A   Clear
11:55 PM 46.4 °F 41.5 °F 30.2 °F 53% 30.18 in 10.0 mi NW 10.4 mph - N/A   Clear